Tracking 28790 objects as of 19-Apr-2024
HD Live streaming from Space Station
objects crossing your sky now

COSMOS 2117

Track COSMOS 2117 now!
10-day predictions
COSMOS 2117 is classified as:


NORAD ID: 21031
Int'l Code: 1990-114D
Perigee: 1,402.4 km
Apogee: 1,416.7 km
Inclination: 82.6 °
Period: 113.8 minutes
Semi major axis: 7780 km
RCS: 1.2146 m2 (large)
Launch date: December 22, 1990
Source: Commonwealth of Independent States (former USSR) (CIS)
Launch site: PLESETSK MISSILE AND SPACE COMPLEX (PKMTR)
Your satellite tracking list
Your tracking list is empty




NASA's NSSDC Master Catalog

Two Line Element Set (TLE):
1 21031U 90114D   24109.71475983  .00000045  00000-0  18668-3 0  9993
2 21031  82.5781 343.8371 0009221  65.2961   0.5174 12.64994684538457
Source of the keplerian elements: AFSPC